COSMOS 2251 DEB, 34021

Orbit data source: Space-Track

COSMOS 2251 DEB, 34021 is space debris in LEO originally from a launch on Wed, 16 Jun 1993 UTC launched from the Plesetsk Missile And Space Complex (PKMTR). The debris from Iridium 33, an American commercial communications satellite, has been tracked extensively since its accidental collision with the defunct Russian satellite Cosmos 2251 in 2009. This event, occurring at high speed in low Earth orbit (LEO), generated thousands of pieces of space debris, significantly increasing the risk of further collisions. The Iridium 33 debris cloud has impacted space traffic management and orbital debris mitigation strategies, making it a subject of ongoing study in space situational awareness.

Loading next visibility...
Identifier
34021, 1993-036HG
Orbit
LEO
Country
Flag of CISCIS
Related business
Manufacturer
Unknown
Mission
Spacecraft
Bus & Motor
Unknown
Mass
Unknown
Launch date (UTC)
1993-06-16 (33 years ago)
Launch vehicle
Unknown
Launch site
Plesetsk Missile And Space Complex (PKMTR)
Object type
Payload
Rocket body
Debris
Shape & HBR
Unknown shape, 0.2 m
Radar Cross Section
Small (<0.1 m²)

Expand to show TLE details & history
Last TLE update: 9 hours ago

TLE from 9 hours ago
0 COSMOS 2251 DEB
1 34021U 93036HG  26121.30719794  .00001354  00000-0  35271-3 0  9997
2 34021  74.0361 227.6557 0020554 334.6321  56.2434 14.50425946906532
Epoch: 2026-05-01T07:22Z
TLE epoch observation values (Epoch: 2026-05-01T07:22:21.902Z)
Latitude
29.807°
Longitude
-92.79597°
Altitude
719.588 km
Speed
7.503 km/s
True Right ascension
15h 48m 08s
True Declination
29° 39' 29"
Sunlit
Object was in full shadow at epoch
Visualization orbit readout
Latitude
Unknown
Longitude
Unknown
Altitude
Unknown
Speed
Unknown
Apparent Right ascension
Unknown
Apparent Declination
Unknown
Sunlit
N/A
Visualization observer readout
Local Sidereal Time
00:13:15
Azimuth
Unknown
Elevation
Unknown
Doppler factor
Unknown
Orbital elements
Apogee altitude
736.459 km
Perigee altitude
707.272 km
Semi-major axis
7,100.003 km
Eccentricity
0.00206
Inclination
74.0361°
RAAN
227.6557°
Arg. of periapsis
334.6321°
True anomaly
56.4395°
Mean anomaly
56.2434°
Eccentric anomaly
56.34142°
Mean motion
3.6279 °/min
Orbital period
99.23 mins
BSTAR
0.00035271
Loading maneuver chart data...
Computing Atmospheric mass density...

Documentation

Showing up to 5 results
|